Ogallala, NE

11:53 AM MST on January 17, 2018 (GMT -0700)
Searle

Weather History for KOGA - March, 2014

Change the Weather History Date:

Saturday, March 29, 2014

  Actual Average Record
Temperature  
Mean Temperature 46 °F -  
Max Temperature 69 °F 52 °F 84 °F (1963)
Min Temperature 22 °F 28 °F 6 °F (1975)
Degree Days  
Heating Degree Days 20    
Moisture  
Dew Point 19 °F    
Average Humidity 46    
Maximum Humidity 89    
Minimum Humidity 9    
Precipitation  
Precipitation 0.00 in - - ()
Sea Level Pressure  
Sea Level Pressure 30.03 in    
Wind  
Wind Speed 7 mph (SW)    
Max Wind Speed 24 mph    
Max Gust Speed 33 mph    
Visibility 10 miles    
Events      
Averages and records for this station are not official NWS values.
T = Trace of Precipitation, MM = Missing Value Source: NWS Daily Summary

Daily Weather History Graph

Daily Weather History Graph

Search for Another Location

Airport or City:

Trip Planner

Search our weather history database for the weather conditions in past years. The results will help you decide how hot, cold, wet, or windy it might be!

Date:

Astronomy

Mar. 29, 2014 Rise Set
Actual Time 6:35 AM MDT 7:08 PM MDT
Civil Twilight 6:07 AM MDT 7:36 PM MDT
Nautical Twilight 5:34 AM MDT 8:09 PM MDT
Astronomical Twilight 5:01 AM MDT 8:43 PM MDT
Moon 5:45 AM MDT (3/29) 6:16 PM MDT (3/29)
Length of Visible Light 13h 29m
Length of Day
12h 33m
Waning Crescent, 1% of the Moon is Illuminated
Mar 29
Waning Crescent
Mar 30
New
Apr 7
First Quarter
Apr 15
Full
Apr 22
Last Quarter

Hourly Weather History & Observations

Time (MDT) Temp. Windchill Dew Point Humidity Pressure Visibility Wind Dir Wind Speed Gust Speed Precip Events Conditions
12:15 AM 26.2 °F - 22.1 °F 84% 30.21 in 10.0 mi Calm Calm - N/A   Clear
12:35 AM 25.2 °F - 21.4 °F 86% 30.20 in 10.0 mi Calm Calm - N/A   Clear
12:55 AM 22.8 °F - 19.6 °F 87% 30.20 in 10.0 mi Calm Calm - N/A   Clear
1:15 AM 22.6 °F - 18.5 °F 84% 30.20 in 10.0 mi Calm Calm - N/A   Clear
1:35 AM 23.5 °F - 19.9 °F 86% 30.20 in 10.0 mi Calm Calm - N/A   Clear
1:55 AM 23.2 °F - 19.9 °F 87% 30.20 in 10.0 mi Calm Calm - N/A   Clear
2:15 AM 24.4 °F - 20.8 °F 86% 30.20 in 10.0 mi Calm Calm - N/A   Clear
2:35 AM 22.5 °F - 17.8 °F 82% 30.20 in 10.0 mi Calm Calm - N/A   Clear
2:55 AM 23.7 °F - 20.3 °F 87% 30.19 in 10.0 mi Calm Calm - N/A   Clear
3:15 AM 23.9 °F - 20.3 °F 86% 30.18 in 10.0 mi Calm Calm - N/A   Clear
3:35 AM 23.2 °F 17.2 °F 20.5 °F 89% 30.18 in 10.0 mi WSW 4.6 mph - N/A   Clear
3:55 AM 24.8 °F - 21.4 °F 87% 30.18 in 10.0 mi Calm Calm - N/A   Clear
4:15 AM 26.6 °F 21.2 °F 22.3 °F 84% 30.18 in 10.0 mi WSW 4.6 mph - N/A   Clear
4:35 AM 28.4 °F 21.2 °F 23.5 °F 82% 30.17 in 10.0 mi SW 6.9 mph - N/A   Clear
4:55 AM 28.0 °F 21.7 °F 23.0 °F 81% 30.17 in 10.0 mi SW 5.8 mph - N/A   Clear
5:15 AM 26.6 °F 19.1 °F 22.6 °F 85% 30.17 in 10.0 mi West 6.9 mph - N/A   Clear
5:35 AM 26.2 °F 17.8 °F 21.9 °F 84% 30.16 in 10.0 mi WSW 8.1 mph - N/A   Clear
5:55 AM 26.1 °F 17.6 °F 21.9 °F 84% 30.15 in 10.0 mi WSW 8.1 mph - N/A   Clear
6:15 AM 26.1 °F 19.4 °F 22.1 °F 85% 30.15 in 10.0 mi WSW 5.8 mph - N/A   Clear
6:35 AM 24.1 °F 18.2 °F 20.3 °F 85% 30.15 in 10.0 mi WSW 4.6 mph - N/A   Clear
6:55 AM 23.7 °F 15.6 °F 20.3 °F 87% 30.14 in 10.0 mi WSW 6.9 mph - N/A   Clear
7:15 AM 25.5 °F 18.7 °F 22.1 °F 87% 30.14 in 10.0 mi West 5.8 mph - N/A   Clear
7:35 AM 27.5 °F 21.1 °F 23.5 °F 85% 30.14 in 10.0 mi WSW 5.8 mph - N/A   Clear
7:55 AM 30.0 °F 23.2 °F 24.8 °F 81% 30.14 in 10.0 mi WSW 6.9 mph - N/A   Clear
8:15 AM 32.0 °F 26.4 °F 25.5 °F 77% 30.13 in 10.0 mi SW 5.8 mph - N/A   Clear
8:35 AM 34.2 °F 26.8 °F 26.6 °F 74% 30.12 in 10.0 mi SW 9.2 mph - N/A   Clear
8:55 AM 37.9 °F 32.7 °F 27.0 °F 65% 30.12 in 10.0 mi SW 6.9 mph - N/A   Clear
9:15 AM 42.4 °F 35.7 °F 28.2 °F 57% 30.11 in 10.0 mi SW 12.7 mph - N/A   Clear
9:35 AM 47.8 °F - 28.6 °F 47% 30.10 in 10.0 mi SW 19.6 mph 25.3 mph N/A   Clear
9:55 AM 51.1 °F - 25.9 °F 38% 30.09 in 10.0 mi SW 19.6 mph 24.2 mph N/A   Clear
10:15 AM 54.5 °F - 24.1 °F 31% 30.09 in 10.0 mi SW 20.7 mph 27.6 mph N/A   Clear
10:35 AM 55.9 °F - 23.5 °F 29% 30.08 in 10.0 mi SW 19.6 mph 29.9 mph N/A   Clear
10:55 AM 56.7 °F - 23.4 °F 28% 30.07 in 10.0 mi SW 18.4 mph 26.5 mph N/A   Clear
11:15 AM 59.5 °F - 23.4 °F 25% 30.06 in 10.0 mi SW 17.3 mph 23.0 mph N/A   Clear
11:35 AM 61.5 °F - 22.6 °F 23% 30.05 in 10.0 mi SW 20.7 mph 26.5 mph N/A   Clear
11:55 AM 61.7 °F - 20.8 °F 21% 30.04 in 10.0 mi WSW 20.7 mph 27.6 mph N/A   Clear
12:15 PM 64.4 °F - 19.4 °F 18% 30.03 in 10.0 mi SW 23.0 mph 28.8 mph N/A   Clear
12:35 PM 66.2 °F - 15.8 °F 14% 30.02 in 10.0 mi SW 19.6 mph 33.4 mph N/A   Clear
12:55 PM 65.1 °F - 15.1 °F 14% 30.00 in 7.0 mi SW 24.2 mph 31.1 mph N/A   Clear
1:15 PM 66.2 °F - 14.2 °F 13% 30.00 in 10.0 mi SW 24.2 mph 32.2 mph N/A   Clear
1:35 PM 67.1 °F - 12.7 °F 12% 29.99 in 10.0 mi SW 19.6 mph 28.8 mph N/A   Clear
1:55 PM 67.8 °F - 13.6 °F 12% 29.98 in 10.0 mi SW 21.9 mph 29.9 mph N/A   Clear
2:15 PM 67.5 °F - 12.6 °F 12% 29.98 in 10.0 mi SW 18.4 mph 26.5 mph N/A   Clear
2:35 PM 68.4 °F - 13.3 °F 12% 29.95 in 10.0 mi SSW 18.4 mph 25.3 mph N/A   Clear
2:55 PM 68.4 °F - 11.7 °F 11% 29.94 in 10.0 mi SSW 24.2 mph 29.9 mph N/A   Clear
3:15 PM 68.5 °F - 12.6 °F 12% 29.93 in 10.0 mi SW 19.6 mph 27.6 mph N/A   Clear
3:35 PM 68.9 °F - 10.9 °F 11% 29.93 in 10.0 mi SW 19.6 mph 28.8 mph N/A   Clear
3:55 PM 68.5 °F - 10.2 °F 10% 29.91 in 10.0 mi SSW 18.4 mph 29.9 mph N/A   Clear
4:15 PM 69.1 °F - 8.2 °F 9% 29.90 in 10.0 mi SSW 17.3 mph 25.3 mph N/A   Clear
4:35 PM 69.3 °F - 11.7 °F 11% 29.89 in 10.0 mi SSW 19.6 mph 24.2 mph N/A   Clear
4:55 PM 69.3 °F - 9.7 °F 10% 29.89 in 10.0 mi SSW 17.3 mph 23.0 mph N/A   Clear
5:15 PM 68.7 °F - 8.6 °F 10% 29.89 in 10.0 mi SW 16.1 mph 19.6 mph N/A   Clear
5:35 PM 68.4 °F - 9.1 °F 10% 29.88 in 10.0 mi SW 12.7 mph 19.6 mph N/A   Clear
5:55 PM 68.0 °F - 8.8 °F 10% 29.88 in 5.0 mi SW 6.9 mph - N/A   Haze
6:15 PM 68.4 °F - 11.5 °F 11% 29.88 in 4.0 mi SW 10.4 mph 16.1 mph N/A   Haze
6:35 PM 65.3 °F - 12.2 °F 13% 29.88 in 10.0 mi SW 6.9 mph - N/A   Clear
6:55 PM 62.6 °F - 13.5 °F 15% 29.88 in 10.0 mi WSW 6.9 mph - N/A   Clear
7:15 PM 57.4 °F - 17.4 °F 21% 29.88 in 10.0 mi WSW 3.5 mph - N/A   Clear
7:35 PM 54.7 °F - 11.8 °F 18% 29.88 in 10.0 mi WSW 4.6 mph - N/A   Clear
7:55 PM 50.5 °F - 15.6 °F 25% 29.89 in 10.0 mi Calm Calm - N/A   Clear
8:15 PM 48.4 °F - 14.4 °F 26% 29.88 in 10.0 mi Calm Calm - N/A   Clear
8:35 PM 44.1 °F - 16.7 °F 33% 29.89 in 10.0 mi Calm Calm - N/A   Clear
8:55 PM 45.1 °F - 17.1 °F 33% 29.89 in 10.0 mi Calm Calm - N/A   Clear
9:15 PM 42.8 °F - 21.0 °F 42% 29.88 in 10.0 mi Calm Calm - N/A   Clear
9:35 PM 43.0 °F - 21.0 °F 42% 29.88 in 10.0 mi Calm Calm - N/A   Clear
9:55 PM 44.2 °F - 22.3 °F 42% 29.88 in 10.0 mi Calm Calm - N/A   Clear
10:15 PM 45.0 °F - 21.7 °F 40% 29.88 in 10.0 mi Calm Calm - N/A   Clear
10:35 PM 43.7 °F - 21.4 °F 41% 29.88 in 10.0 mi Calm Calm - N/A   Clear
10:55 PM 44.2 °F - 19.4 °F 37% 29.86 in 10.0 mi Calm Calm - N/A   Clear
11:15 PM 42.1 °F - 20.7 °F 42% 29.86 in 10.0 mi Calm Calm - N/A   Clear
11:35 PM 40.5 °F - 22.1 °F 48% 29.86 in 10.0 mi Calm Calm - N/A   Clear
11:55 PM 47.3 °F - 19.2 °F 33% 29.85 in 10.0 mi Calm Calm - N/A   Clear